TDRS 7

Last updated on Nov. 18, 2019, 4:21 a.m. UTC

1 23613U 95035B   19320.65434028 -.00000194  00000-0  00000-0 0  9999
2 23613  14.2313   6.4194 0026857  20.6748 348.7383  1.00271104 89144
UTC
Height (km)
Latitude
Longitude
Inclination
Orbital Period
UTC large
Height (km)
Speed (km/s)
/
Latitude / Longitude
Inclination (degrees)
Orbital Period (minutes)
Azimuth
Elevation
Range (km)
Doppler Factor
iOS Compass Heading
iOS Angle

Next 30 passes for location: Hong Kong

Rise time Rise Azimuth (degrees) Set time Set Azimuth (degrees) Duration Max altitude (degrees)

No matching passes for this satellites